Regional Weather Roundup
Issued by NWS

Home | Current Version | Previous Version | Text Only | Print | Product List | Glossary Off
Versions: 1 2 3 4 5 6 7 8 9 10 11 12 13 14 15 16 17 18 19 20 21 22 23 24 25 26 27 28 29 30 31 32 33 34 35 36 37 38 39 40 41 42 43 44 45 46 47 48 49 50

002
ASUS43 KFSD 272010
RWRSD

WEATHER ROUNDUP FOR SOUTH DAKOTA
NATIONAL WEATHER SERVICE SIOUX FALLS SD
300 PM CDT SUN MAY 27 2018

NOTE: "FAIR" INDICATES FEW OR NO CLOUDS BELOW 12,000 FEET WITH NO
SIGNIFICANT WEATHER AND/OR OBSTRUCTIONS TO VISIBILITY.


SDZ001>005-009-010-012>017-272100-
NORTHWEST AND NORTH CENTRAL SOUTH DAKOTA

CITY           SKY/WX    TMP DP  RH WIND       PRES   REMARKS
BUFFALO          N/A     80  55  42 NW21      29.87R
FAITH            N/A     80  63  55 N18G25    29.84R
MOBRIDGE       SUNNY     89  64  43 NW12      29.72F
$$

SDZ012>016-024>037-041>051-057-063-072>074-272100-
SOUTHWEST AND SOUTH CENTRAL SOUTH DAKOTA

CITY           SKY/WX    TMP DP  RH WIND       PRES   REMARKS
RAPID CTY ARPT MOSUNNY   81  57  43 N21G32    29.87S
PIERRE         SUNNY     89  62  40 W13       29.72F
CUSTER         CLOUDY    74  41  30 NE13G20   30.01R
ELLSWORTH AFB  MOSUNNY   82  55  39 N23G29    29.88R
PHILIP         MOSUNNY   84  65  52 NW9       29.78S
PINE RIDGE     CLOUDY    83  63  50 NE10      29.84F
SPEARFISH      FAIR      73  55  53 NW15      29.97F
WINNER         FAIR      92  59  33 S18G28    29.75F
$$

SDZ004>011-016>023-039-040-272100-
NORTHEAST SOUTH DAKOTA

CITY           SKY/WX    TMP DP  RH WIND       PRES   REMARKS
ABERDEEN       MOSUNNY  100  52  19 SW24G38   29.70F HX  97
WATERTOWN      CLOUDY    93  60  33 S14       29.77F
BROOKINGS      SUNNY     97  58  27 SW13G24   29.80F HX  96
SISSETON         N/A     86  66  51 SE13      29.76F
$$

SDZ017-020-022-023-036>040-048>070-272100-
SOUTHEAST SOUTH DAKOTA

CITY           SKY/WX    TMP DP  RH WIND       PRES   REMARKS
SIOUX FALLS    MOSUNNY   94  64  37 S7        29.81F HX  95
HURON          MOSUNNY   95  60  31 S24G37    29.73S HX  95
CHAMBERLAIN    MOSUNNY   95  62  33 S21       29.74F HX  95
MITCHELL       MOSUNNY   97  56  25 S20G32    29.76F HX  95
YANKTON        MOSUNNY   96  59  29 S15       29.80S HX  95
$$

ABBREVIATIONS USED IN REMARKS
   TC - TEMPERATURE IN CELSIUS
  WCI - WIND CHILL INDEX
   HX - HEAT INDEX
  VSB - VISIBILITY





USA.gov is the U.S. government's official web portal to all federal, state and local government web resources and services.